Weather History for Baker, MT

Change the Weather History Date:

Friday, April 12, 2013

  Actual Average Record
Temperature  
Mean Temperature 0 °C -  
Max Temperature 4 °C 7 °C 28 °C (2003)
Min Temperature -4 °C 1 °C -7 °C (2004)
Degree Days  
Heating Degree Days 34    
Moisture  
Dew Point -4 °C    
Average Humidity 81    
Maximum Humidity 93    
Minimum Humidity 65    
Precipitation  
Precipitation 0.00 mm - - ()
Sea Level Pressure  
Sea Level Pressure 1014 hPa    
Wind  
Wind Speed 10 km/h (NW)    
Max Wind Speed 32 km/h    
Max Gust Speed -    
Visibility 14 kilometers    
Events Fog , Snow    
Averages and records for this station are not official NWS values.
T = Trace of Precipitation, MM = Missing Value Source: NWS Daily Summary

Daily Weather History Graph

Daily Weather History Graph

Search for Another Location

Airport:

Trip Planner

Search our weather history database for the weather conditions in past years. The results will help you decide how hot, cold, wet, or windy it might be!

Date:

Astronomy

Apr. 12, 2013 Rise Set
Actual Time 6:15 AM MDT 7:41 PM MDT
Civil Twilight 5:44 AM MDT 8:12 PM MDT
Nautical Twilight 5:06 AM MDT 8:50 PM MDT
Astronomical Twilight 4:25 AM MDT 9:31 PM MDT
Moon 7:19 AM MDT (4/12) 10:22 PM MDT (4/12)
Length of Visible Light 14h 28m
Length of Day
13h 25m
Waxing Crescent, 5% of the Moon is Illuminated
Apr 12
Waxing Crescent
Apr 18
First Quarter
Apr 25
Full
May 2
Last Quarter
May 9
New

Hourly Weather History & Observations

Time (MDT) Temp. Windchill Dew Point Humidity Pressure Visibility Wind Dir Wind Speed Gust Speed Precip Events Conditions
12:51 AM -1.1 °C - -4.4 °C 79% 1013.8 hPa 16.1 km Calm Calm - N/A   Overcast
1:41 AM -2.0 °C - -6.0 °C 74% 1011.1 hPa 16.1 km Calm Calm - N/A   Scattered Clouds
1:51 AM -1.7 °C - -5.6 °C 75% 1013.6 hPa 16.1 km Calm Calm - N/A   Partly Cloudy
2:51 AM -2.8 °C - -5.6 °C 81% 1013.5 hPa 16.1 km Calm Calm - N/A   Scattered Clouds
3:37 AM -4.0 °C - -6.0 °C 86% 1011.1 hPa 16.1 km Calm Calm - N/A   Mostly Cloudy
3:51 AM -2.8 °C - -5.6 °C 81% 1013.7 hPa 16.1 km Calm Calm - N/A   Overcast
4:51 AM -2.2 °C -6.7 °C -5.0 °C 81% 1013.6 hPa 16.1 km WNW 13.0 km/h / 3.6 m/s - N/A   Mostly Cloudy
5:03 AM -3.0 °C -7.6 °C -6.0 °C 80% 1011.4 hPa 16.1 km WNW 13.0 km/h / 3.6 m/s - N/A   Scattered Clouds
5:13 AM -3.0 °C -7.2 °C -6.0 °C 80% 1011.4 hPa 16.1 km WNW 11.1 km/h / 3.1 m/s - N/A   Mostly Cloudy
5:40 AM -3.0 °C -7.6 °C -6.0 °C 80% 1011.1 hPa 16.1 km West 13.0 km/h / 3.6 m/s - N/A   Mostly Cloudy
5:49 AM -3.0 °C -6.7 °C -5.0 °C 86% 1011.1 hPa 14.5 km WNW 9.3 km/h / 2.6 m/s - N/A   Overcast
5:51 AM -2.8 °C -6.4 °C -5.0 °C 85% 1013.6 hPa 14.5 km WNW 9.3 km/h / 2.6 m/s - N/A   Overcast
6:05 AM -3.0 °C -7.6 °C -5.0 °C 86% 1011.1 hPa 2.8 km West 13.0 km/h / 3.6 m/s - N/A   Overcast
6:14 AM -3.0 °C -7.6 °C -5.0 °C 86% 1011.1 hPa 0.8 km West 13.0 km/h / 3.6 m/s - N/A Fog Light Freezing Fog
6:51 AM -2.8 °C -7.4 °C -4.4 °C 89% 1013.7 hPa 0.4 km West 13.0 km/h / 3.6 m/s - N/A Fog Light Freezing Fog
7:51 AM -1.7 °C -4.5 °C -3.3 °C 89% 1013.9 hPa 0.4 km NW 7.4 km/h / 2.1 m/s - N/A Fog Light Freezing Fog
9:08 AM -1.0 °C -5.2 °C -2.0 °C 93% 1012.4 hPa 4.8 km NW 13.0 km/h / 3.6 m/s - N/A   Overcast
9:32 AM -1.0 °C -4.8 °C -2.0 °C 93% 1012.8 hPa 16.1 km NW 11.1 km/h / 3.1 m/s - N/A   Overcast
9:51 AM 0.0 °C -3.6 °C -1.7 °C 88% 1015.4 hPa 12.9 km NNW 11.1 km/h / 3.1 m/s - N/A   Overcast
10:25 AM -1.0 °C -4.3 °C -2.0 °C 93% 1013.1 hPa 14.5 km NNW 9.3 km/h / 2.6 m/s - N/A   Overcast
10:51 AM 0.0 °C -5.0 °C -1.7 °C 88% 1015.8 hPa 16.1 km North 18.5 km/h / 5.1 m/s - N/A   Overcast
11:07 AM 1.0 °C -3.4 °C -2.0 °C 81% 1013.4 hPa 16.1 km NNW 16.7 km/h / 4.6 m/s - N/A   Overcast
11:51 AM 1.1 °C -4.4 °C -2.2 °C 79% 1016.0 hPa 16.1 km NNW 24.1 km/h / 6.7 m/s - N/A   Overcast
12:51 PM 1.1 °C -5.2 °C -2.2 °C 79% 1016.4 hPa 16.1 km NNW 31.5 km/h / 8.7 m/s - N/A   Overcast
1:51 PM 1.1 °C -4.1 °C -2.8 °C 75% 1016.5 hPa 16.1 km NW 22.2 km/h / 6.2 m/s - N/A   Overcast
2:16 PM 1.0 °C -4.9 °C -2.0 °C 81% 1014.1 hPa 12.9 km NW 27.8 km/h / 7.7 m/s - 0.0 mm Snow Light Snow
2:51 PM 2.2 °C -3.0 °C -1.7 °C 76% 1016.6 hPa 16.1 km NW 24.1 km/h / 6.7 m/s - 0.0 mm   Overcast
3:22 PM 2.0 °C -3.2 °C -2.0 °C 75% 1014.1 hPa 16.1 km NW 24.1 km/h / 6.7 m/s - N/A   Overcast
3:32 PM 2.0 °C -3.4 °C -3.0 °C 70% 1013.8 hPa 16.1 km NNW 25.9 km/h / 7.2 m/s - N/A   Overcast
4:51 PM 3.3 °C -1.5 °C -2.2 °C 68% 1015.9 hPa 16.1 km NW 24.1 km/h / 6.7 m/s - N/A   Mostly Cloudy
5:51 PM 3.3 °C -0.6 °C -2.2 °C 68% 1015.9 hPa 16.1 km NW 16.7 km/h / 4.6 m/s - N/A   Mostly Cloudy
6:03 PM 4.0 °C -0.4 °C -2.0 °C 65% 1013.4 hPa 16.1 km WNW 22.2 km/h / 6.2 m/s - N/A   Mostly Cloudy
6:51 PM 2.8 °C -0.6 °C -2.2 °C 70% 1015.8 hPa 16.1 km West 13.0 km/h / 3.6 m/s - N/A   Overcast
8:51 PM -0.6 °C - -2.8 °C 85% 1015.8 hPa 12.9 km Calm Calm - N/A   Clear
9:36 PM -2.0 °C -4.9 °C -4.0 °C 86% 1012.8 hPa 8.0 km East 7.4 km/h / 2.1 m/s - N/A   Mostly Cloudy
9:51 PM -1.7 °C -3.8 °C -3.3 °C 89% 1015.5 hPa 9.7 km SSE 5.6 km/h / 1.5 m/s - N/A   Overcast
10:51 PM -2.8 °C -7.4 °C -5.0 °C 85% 1014.9 hPa 16.1 km SE 13.0 km/h / 3.6 m/s - N/A   Mostly Cloudy
10:57 PM -3.0 °C -6.7 °C -5.0 °C 86% 1012.1 hPa 16.1 km SE 9.3 km/h / 2.6 m/s - N/A   Scattered Clouds
11:51 PM -4.4 °C -8.3 °C -6.7 °C 84% 1014.4 hPa 14.5 km ESE 9.3 km/h / 2.6 m/s - N/A   Clear